Regional Weather Roundup
Issued by NWS

Home | Current Version | Previous Version | Graphics & Text | Print | Product List | Glossary On
Versions: 1 2 3 4 5 6 7 8 9 10 11 12 13 14 15 16 17 18 19 20 21 22 23 24 25 26 27 28 29 30 31 32 33 34 35 36 37 38 39 40 41 42 43 44 45 46 47 48 49 50
827
ASUS45 KSLC 240410
RWRUT

UTAH REGIONAL WEATHER ROUNDUP
NATIONAL WEATHER SERVICE SALT LAKE CITY UT
900 PM MST MON JAN 23 2017

UTZ001>011-023>025-240500-

NORTHERN UTAH

CITY           SKY/WX    TMP DP  RH WIND       PRES   REMARKS
BRIGHAM CITY     N/A     30  28  92 N6        29.62S WCI  24
HILL AFB       LGT SNOW  28  26  93 E5        29.60R FOG     WCI  23
LOGAN          LGT SNOW  27  27 100 W5        29.59R FOG     WCI  22
OGDEN          LGT SNOW  28  27  96 E3        29.61R FOG
SALT LAKE CITY CLOUDY    33  29  85 NE6       29.61S WCI  28
TOOELE VALLEY  CLOUDY    34  27  75 CALM      29.61S
WENDOVER       MOCLDY    28  19  69 NW9       29.63S WCI  20
HEBER CITY     CLOUDY    28  23  80 SW5       29.55R WCI  23
WEST JORDAN    CLOUDY    32  32 100 N5        29.61S WCI  27

$$

UTZ011>015-024>027-240500-

CENTRAL/NORTHEAST UTAH

CITY           SKY/WX    TMP DP  RH WIND       PRES   REMARKS
PROVO AIRPORT  CLOUDY    29  28  96 SE7       29.63R WCI  22
MOAB/CANYONLAN PTCLDY    37  28  70 CALM      29.56S
DELTA          CLOUDY    30  30 100 MISG      29.63F VSB 1/4
PRICE          MOCLDY    27  21  78 E10       29.53S WCI  17
ROOSEVELT      FOG       28  27  93 W3        29.57R VSB 1/2
VERNAL         NOT AVBL

$$

UTZ013>016-019>022-027-240500-

SOUTHERN UTAH

CITY           SKY/WX    TMP DP  RH WIND       PRES   REMARKS
BRYCE CANYON   CLOUDY    18  14  84 W8        29.59S WCI   8
CEDAR CITY     CLOUDY    27  23  85 S12       29.61F WCI  17
MILFORD        MOCLDY    31  26  82 SW13      29.61R WCI  21
ST GEORGE      CLOUDY    39  28  65 N15       29.71R WCI  31
HANKSVILLE     PTCLDY    34  27  75 MISG      29.60R
BLANDING       CLOUDY    29  29 100 S10       29.70F WCI  20

$$

REGIONAL REPORTS     COLORADO/ARIZONA

CITY           SKY/WX    TMP DP  RH WIND       PRES   REMARKS
CRAIG, CO      CLOUDY    31  18  58 SW13      29.54R WCI  21
GRAND JUNCTION PTCLDY    32  31  96 W6        29.58S WCI  26
RIFLE, CO      CLOUDY    30  29  96 CALM      29.57F
MONTROSE, CO   CLOUDY    34  25  69 SE15      29.62F WCI  24
CORTEZ, CO     LGT SNOW  29  28  96 E9        29.67S FOG     WCI  20
COLORADO CITY  CLOUDY    34  32  93 SW5       29.67F WCI  30
PAGE, AZ       CLOUDY    38  27  64 CALM      29.65R
GRAND CANYON   CLOUDY    24  23  96 SW6       29.66F WCI  17
KINGMAN, AZ    CLOUDY    37  33  85 SW13      29.71S WCI  29
FLAGSTAFF, AZ  LGT SNOW  26  24  92 SW13G24   29.65F FOG     WCI  15

$$

REGIONAL REPORTS    NEVADA/IDAHO/WYOMING

CITY           SKY/WX    TMP DP  RH WIND       PRES   REMARKS
LAS VEGAS, NV  CLOUDY    46  31  55 N13       29.70R
ELY, NY        MOCLDY     1  -4  79 S3        29.66R
ELKO, NV       MOCLDY    24  18  77 S5        29.69S WCI  18
POCATELLO, ID  LGT SNOW  27  26  96 W20       29.57R VSB 3/4 WCI  13
BURLEY, ID     CLOUDY    29  25  85 W14       29.58S WCI  18
FORT BRIDGER,    N/A     23  23  99 SW24G30   29.50R WCI   7
EVANSTON, WY   CLOUDY    20  15  81 SW23      29.49S WCI   3
ROCK SPRINGS,  CLOUDY    25  20  81 SW8       29.48R WCI  16

$$




USA.gov is the U.S. government's official web portal to all federal, state and local government web resources and services.